Location: Al Mulaqqa?ah
(24.1833°N, 32.8833°E)
Time: 12:27:59
(UTC+00:00)

Cosmos 1674 - Pass Details

Date: 26 September 2021
Orbit: 492 x 515 km, 82.5° (Epoch: 19 October)

Event Time Altitude Azimuth Distance (km) Brightness Sun altitude
Rises 16:12:49 0° 19° (NNE) 2,576 6.1 -8.2°
Reaches altitude 10° 16:15:39 10° 43° (NE) 1,695 4.9 -8.8°
Maximum altitude 16:17:53 15° 80° (E) 1,397 4.3 -9.3°
Enters shadow 16:19:28 12° 108° (ESE) 1,556 4.5 -9.7°
